Location: *
(4.6739°S, 37.8219°W)
Time: 18:51:29
(UTC+00:00)

Daily predictions for brighter satellites

Satellite Brightness Start Highest point End
(mag) Time Altitude Azimuth Time Altitude Azimuth Time Altitude Azimuth
ARIANE 5 R/B 3.8 20:05:33 10° W 20:10:30 84° S 20:56:28 10° E
ARIANE 5 R/B 3.8 20:05:33 10° W 20:10:31 84° S 20:56:27 10° E
ARIANE 5 R/B 3.8 20:05:33 10° W 20:10:31 84° S 20:56:28 10° E
ARIANE 5 R/B 3.8 20:05:34 10° W 20:10:31 84° S 20:56:27 10° E
Cosmos 1975 2.8 20:40:36 10° S 20:44:33 60° E 20:48:27 10° NNE
H-2A R/B 2.8 20:43:07 10° S 20:46:48 78° W 20:50:27 10° NNW
YAOGAN 6 3.9 20:46:36 10° SE 20:49:14 20° E 20:51:52 10° NNE
Cosmos 2098 Rocket 4.3 20:42:33 10° N 20:49:45 58° E 20:56:08 10° SSE
BREEZE M DEB (TANK) 4.2 20:47:09 10° NW 20:51:12 77° NE 21:22:23 10° SE
SAR-Lupe-2 4.5 20:48:34 10° NE 20:51:37 27° ESE 20:54:41 10° SSE
Cosmos 1743 3.4 20:48:02 10° SSW 20:51:48 59° W 20:55:32 10° N
CZ-3C R/B 3.0 20:55:20 10° SSW 20:57:08 14° S 21:00:02 10° SE
Cosmos 1745 Rocket 4.3 20:51:54 10° N 20:58:08 78° W 21:04:29 10° S
Cosmos 2322 Rocket 3.6 20:59:42 10° NE 21:03:12 17° ENE 21:06:31 11° ESE
NOSS 3-1 (C) 4.4 20:54:42 10° NNW 21:03:29 88° WSW 21:12:13 10° SSE
GPS 2-12 Rocket1 3.4 21:00:08 10° W 21:04:35 60° SSW 21:08:55 11° ESE
Okean 2 Rocket 4.1 21:02:30 10° SSW 21:06:47 50° W 21:11:03 10° N
Okean 1 Rocket 3.9 21:05:27 10° SSE 21:09:12 28° E 21:12:54 10° NE
CZ-4 R/B 1.3 21:06:01 10° SSE 21:09:49 56° E 21:13:34 10° N
APEX 4.4 21:08:56 10° NE 21:09:43 13° NE 21:09:43 13° NE
Cosmos 1975 Rocket 3.2 21:06:33 10° N 21:10:52 52° E 21:15:10 10° SSE
Cosmos 1867 3.7 21:08:54 10° NNW 21:14:17 81° WSW 21:19:40 10° SSE
Cosmos 2219 3.4 21:10:13 10° S 21:15:43 49° ESE 21:21:13 10° NNE
Meteor 1-23 Rocket 4.2 21:10:13 10° N 21:15:46 86° W 21:21:24 10° S
ATLAS 5 CENTAUR R/B 3.6 21:11:08 10° SW 21:16:28 37° SSE 21:28:24 18° E
CZ-4 R/B 4.3 21:12:23 10° SSE 21:16:34 78° ENE 21:20:42 10° N
CZ-3B R/B 4.3 20:58:26 10° SW 21:19:37 45° SSE 21:28:23 18° ESE
Cosmos 2227 Rocket 3.1 21:15:19 10° SSE 21:19:55 26° ESE 21:23:02 16° ENE
Meteor 2-9 Rocket 4.5 21:15:42 10° S 21:21:34 78° W 21:27:24 10° N
ADEOS Rocket 4.1 21:16:29 10° NE 21:23:16 34° ESE 21:29:56 10° SSE
Ariane Rocket 3.9 21:22:10 17° ESE 21:24:40 25° ENE 21:28:44 10° NNE
Cosmos 2056 Rocket 4.2 21:21:55 10° SSE 21:26:37 31° ESE 21:30:22 15° NE
USA 32 4.4 21:23:11 10° NNE 21:28:01 39° E 21:32:52 10° SSE
EXPRESS MD2 3.1 21:26:07 10° NNW 21:27:57 30° NNE 21:27:57 30° NNE
Cosmos 2297 Rocket 2.6 21:26:11 10° S 21:31:22 37° ESE 21:35:11 17° NE
Cosmos 2084 Rocket 3.4 21:30:10 10° SSW 21:34:32 66° ESE 21:37:44 18° NE
ISS -0.7 21:33:07 10° W 21:35:03 15° NW 21:36:59 10° NNW
GP-B 3.2 21:32:06 10° NNE 21:36:24 51° E 21:40:43 10° S
Nadezhda 1 Rocket 3.9 21:31:35 10° S 21:37:47 83° E 21:43:51 10° N
Cosmos 1269 Rocket 4.1 21:33:40 10° N 21:38:47 51° ENE 21:43:29 12° SSE
ASTEX 1 3.7 21:34:38 10° NNE 21:39:11 41° E 21:43:48 10° SSE
Cosmos 1624 Rocket 4.2 21:34:30 10° S 21:39:32 46° ESE 21:43:01 19° NE
YAOGAN 1 2.7 21:35:24 10° S 21:39:44 74° W 21:44:02 10° NNW
Centaur D-1A AC-31 1.7 21:29:23 10° WSW 21:40:13 88° NW 21:41:56 34° ENE
Cosmos 1980 Rocket 4.2 21:36:06 10° NW 21:40:58 29° WSW 21:45:51 10° SSW
SL-24 R/B 4.4 21:36:32 10° SSE 21:41:21 62° E 21:46:28 10° N
Cosmos 1441 Rocket 4.0 21:44:27 10° SSW 21:48:19 52° W 21:52:06 10° N
Palapa B4 Rocket 4.2 21:45:08 10° WSW 21:48:41 26° SSW 21:49:43 23° S
Cosmos 1939 Rocket 4.0 21:51:24 29° NNE 21:51:24 29° NNE 21:53:30 10° N
SL-16 R/B 2.0 21:46:33 10° N 21:52:11 74° ENE 21:56:46 16° SSE
Cosmos 1544 4.3 21:51:21 10° SSW 21:54:47 42° W 21:58:10 10° NNW
Ariane H10+ 3.8 21:47:35 10° WNW 21:59:24 60° N 22:01:22 43° NE
BLOCK DM-SL R/B 3.2 21:56:01 10° WNW 22:00:51 50° N 22:01:21 48° NNE
ARIANE 5 R/B 3.5 21:59:31 10° W 22:00:20 19° W 22:00:20 19° W
GPS 2-15 Rocket1 3.5 21:58:31 10° W 22:03:05 52° NNW 22:03:37 49° N
USA 267 3.1 22:04:58 32° NE 22:08:17 87° SE 22:14:51 10° SW
Cosmos 1371 Rocket 4.4 22:04:08 10° SSW 22:09:16 62° WNW 22:14:27 10° N
Lacrosse 5 rocket 3.8 22:10:34 10° WSW 22:12:54 16° WNW 22:14:50 11° NNW
GPS 2-04 Rocket1 4.5 22:10:09 10° SW 22:11:51 25° SW 22:11:51 25° SW
H-II Stage 2 4.4 21:52:01 10° WSW 22:17:58 69° NW 22:19:23 52° NNE
Ariane H10-3 4.4 22:17:37 10° W 22:18:21 20° W 22:18:21 20° W
Lacrosse 5 4.2 22:25:40 10° SSW 22:26:16 13° S 22:26:16 13° S
Cosmos 2322 Rocket 3.7 22:41:57 10° NW 22:46:54 32° WSW 22:48:31 28° SW
ARIANE 5 R/B 4.0 22:55:04 10° WNW 22:57:43 47° NW 22:57:43 47° NW
Cosmos 2227 Rocket 4.3 22:59:26 10° SW 23:03:39 22° WNW 23:05:04 20° NW
CZ-3B R/B 4.0 23:28:16 10° WSW 23:39:18 47° WSW 23:39:18 47° WSW
